Date,TemperatureHighF,TemperatureAvgF,TemperatureLowF,DewpointHighF,DewpointAvgF,DewpointLowF,HumidityHigh,HumidityAvg,HumidityLow,PressureMaxIn,PressureMinIn,WindSpeedMaxMPH,WindSpeedAvgMPH,GustSpeedMaxMPH,PrecipitationSumIn
2013-3-1,50.4,40.4,29.3,38.9,33.8,28.8,98,79,54,29.74,29.67,6,2,0,0.00
2013-3-2,49.8,38.6,27.7,37.8,30.5,24.0,98,75,53,29.75,29.63,6,2,0,0.00
2013-3-3,47.3,35.8,27.0,29.0,25.1,20.9,98,67,47,29.81,29.67,7,2,0,0.00
2013-3-4,50.5,36.9,24.8,24.0,21.2,18.3,86,56,31,29.95,29.81,8,2,0,0.00
2013-3-5,52.7,44.0,35.6,48.2,37.5,24.0,98,80,51,29.92,29.39,6,1,0,0.38
2013-3-6,49.6,43.2,37.2,49.1,37.9,31.9,98,83,62,29.85,29.33,11,4,0,0.01
2013-3-7,52.5,42.2,33.1,38.3,34.8,30.3,98,77,55,30.07,29.85,8,2,0,0.00
2013-3-8,56.5,43.8,31.1,34.7,31.7,29.8,98,66,38,30.11,29.98,11,3,0,0.00
2013-3-9,63.9,46.3,31.8,39.1,33.8,30.1,98,66,31,30.17,30.07,5,1,0,0.00
2013-3-10,69.1,50.9,34.0,40.1,31.2,7.9,98,57,9,30.16,30.04,5,1,0,0.00
2013-3-11,71.1,56.5,40.5,65.1,51.7,29.1,98,86,47,30.08,29.77,6,2,0,0.00
2013-3-12,72.3,61.9,50.7,71.7,58.6,39.0,98,90,59,29.78,29.58,8,3,0,0.42
2013-3-13,58.8,47.3,34.2,43.1,33.2,24.0,98,61,36,29.96,29.77,11,3,0,0.00
2013-3-14,54.5,40.7,29.1,28.1,23.6,20.5,78,51,34,30.08,29.93,10,3,0,0.00
2013-3-15,63.0,47.5,29.8,41.2,32.6,21.7,98,58,39,30.02,29.74,9,2,0,0.00
2013-3-16,79.0,62.7,48.9,61.8,52.9,41.5,98,74,44,29.74,29.49,5,2,0,0.00
2013-3-17,62.4,53.5,42.1,60.6,52.8,41.6,98,98,87,30.00,29.66,8,3,0,0.00
2013-3-18,44.8,41.8,38.8,44.3,41.3,38.3,98,98,98,30.03,29.70,5,2,0,0.36
2013-3-19,68.2,53.0,42.3,57.7,39.2,16.4,98,68,24,29.85,29.65,7,2,0,0.01
2013-3-20,56.1,47.2,36.9,28.4,18.3,11.2,66,33,22,29.96,29.61,6,2,0,0.00
2013-3-21,48.6,40.6,30.6,39.8,25.5,14.9,98,58,33,29.81,29.56,8,3,0,0.00
2013-3-22,54.0,37.7,23.2,27.4,20.0,15.4,96,52,27,29.92,29.80,6,2,0,0.00
2013-3-23,56.1,45.7,37.4,41.4,32.4,25.8,98,62,40,29.89,29.74,4,1,0,0.00
2013-3-24,43.5,39.3,35.4,43.0,38.8,34.9,98,98,98,29.77,29.39,10,3,0,0.86
2013-3-25,49.8,41.3,36.1,46.1,35.1,29.5,98,81,51,29.65,29.38,10,2,0,0.00
2013-3-26,51.4,42.4,32.2,39.4,34.5,31.7,98,76,54,29.95,29.65,9,3,0,0.00
2013-3-27,54.0,42.6,33.4,37.8,31.7,26.5,98,69,40,30.06,29.95,8,3,0,0.00
2013-3-28,57.4,44.3,31.3,37.8,31.6,29.0,98,65,37,30.13,29.98,9,2,0,0.00
2013-3-29,60.3,45.6,31.5,38.7,32.9,29.4,98,66,33,30.17,30.01,6,1,0,0.00
2013-3-30,68.0,54.5,41.4,54.8,44.3,33.3,98,73,35,30.08,29.92,5,1,0,0.00
2013-3-31,69.4,57.7,48.9,68.8,57.1,48.4,98,98,98,29.94,29.64,5,2,0,0.46